Weather Service Report


797 
ASUS41 KALY 301210
RWRALY

NEW YORK STATE HOURLY WEATHER ROUNDUP
NATIONAL WEATHER SERVICE ALBANY NY
800 AM EDT THU JUN 30 2016

NOTE: "FAIR" INDICATES FEW OR NO CLOUDS BELOW 12,000 FEET WITH NO
SIGNIFICANT WEATHER AND/OR NO OBSTRUCTIONS TO VISIBILITY.

NYZ032-033-038>043-046>054-057>066-NYZ062>081-082-084-301300-
EAST

  
CITY           SKY/WX    TMP DP  RH WIND       PRES   REMARKS
ALBANY         SUNNY     67  57  70 S3        30.02R                  
GLENS FALLS    SUNNY     66  58  75 S5        30.00R                  
POUGHKEEPSIE   SUNNY     67  59  75 CALM      30.01S                  
NEWBURGH       SUNNY     64  61  88 SW6       30.04S                  
WHITE PLAINS   SUNNY     70  58  65 NW7       30.01S                  
ISLIP          SUNNY     72  59  63 N12       29.99S                  
NEW YORK CITY  MOSUNNY   72  59  63 NW6       30.01R                  
CENTRAL PARK   SUNNY     70  57  63 N5        30.04S                  
$$

NYZ005>009-017-018-044>046-055-056-301300-
CENTRAL

  
CITY           SKY/WX    TMP DP  RH WIND       PRES   REMARKS
FULTON         SUNNY     66  56  70 SW7       30.02S                  
SYRACUSE       SUNNY     65  56  72 SW6       30.02S                  
ROME           SUNNY     60  56  86 CALM      30.04S                  
ELMIRA         MOSUNNY   57  54  89 SW6       30.06R                  
BINGHAMTON     SUNNY     60  55  83 W3        30.06S                  
MONTICELLO     SUNNY     61  55  82 NW3       30.08S                  
$$

NYZ026>034-041>043-087-301300-
NORTH

  
CITY           SKY/WX    TMP DP  RH WIND       PRES   REMARKS
WATERTOWN      SUNNY     65  57  75 SW6       30.00R                  
FORT DRUM      NOT AVBL                                               
MASSENA        SUNNY     64  57  78 SW8       29.98R                  
SARANAC LAKE   MOSUNNY   60  56  86 S6        30.00S                  
PLATTSBURGH    SUNNY     67  60  78 SE7       29.96R                  
$$

NYZ001>004-010>016-019>021-085-301300-
WEST

  
CITY           SKY/WX    TMP DP  RH WIND       PRES   REMARKS
NIAGARA FALLS  MOSUNNY   65  54  67 CALM      30.04S                  
BUFFALO        MOSUNNY   63  56  78 SW6       30.05R                  
DUNKIRK        SUNNY     62  56  80 S8        30.06R                  
JAMESTOWN      CLOUDY    55  52  88 CALM      30.09S                  
WELLSVILLE     SUNNY     60  50  69 VRB3      30.11R                  
ROCHESTER      MOSUNNY   64  55  72 W9        30.04S                  
PENN YAN       SUNNY     63  52  67 S7        30.05S                  
$$

             KEY
       WCI = WIND CHILL INDEX
       VSB = VISIBILITY
       HX  = HEAT INDEX
$$
  

Return to Home page


Western Regional Climate Center, wrcc@dri.edu